TIANGONG-2 (41765 NORAD) Tracking and Keplerian Element Data

This shows tracking and keplerian element data for the satellite.

Feedback or suggestion? Click here.




ElementValue
Catalog41765
NameTIANGONG-2
Epoch Orbit15359
Epoch Day146.16340207
Epoch Year2019
RAAN98.2172
Inclination42.7841
Eccentricity0.000637
Argument of Perigee115.6999
Mean Anonmoly202.2056
Mean Motion15.61588071
Decay Rate2.409E-05
L11 41765U 16057A 19146.16340207 .00002409 00000-0 31679-4 0 9991
L22 41765 42.7841 98.2172 0006370 115.6999 202.2056 15.61588071153598

Live tracking and technical data element details for TIANGONG-2 (NORAD 41765). TIANGONG-2 can be tracked NOW for your location showing map with azimuth and elevation plus other details from your city location.

Track the satellite on the map from your city or location and see movement details for azimuth, elevation, latitude, longitude, range, height, and movement on the map or in text.







IsCatalogInMostPopularTable: catalog: 41765, numindb: 232
Update: records affected: 1



GetName: 41765 TIANGONG-2

Hit Count: updated at: Sun, 26 May 2019 19:11:45 GMT